| time (UTC) | temp F | wind direction | speed knots | gust knots | rain 1hr in | rain 24hr in | rain mn in | humidity % | barometer mb |
| 20260904175021 | 58 | 270 | 0.9 | 1.7 | 0.00 | 0.03 | 0.01 | 65 | 1013.2 |
| 20260904174021 | 58 | 270 | 0.9 | 2.6 | 0.00 | 0.03 | 0.01 | 66 | 1013.3 |
| 20260904173021 | 57 | 270 | 1.7 | 3.5 | 0.00 | 0.03 | 0.01 | 69 | 1013.4 |
| 20260904172041 | 57 | 270 | 0.9 | 1.7 | 0.00 | 0.03 | 0.01 | 73 | 1013.3 |
| 20260904171021 | 57 | 0.0 | 1.7 | 0.00 | 0.03 | 0.01 | 75 | 1013.2 | |
| 20260904170021 | 57 | 270 | 0.9 | 2.6 | 0.00 | 0.03 | 0.01 | 76 | 1013.3 |
| 20260904165021 | 57 | 248 | 0.9 | 2.6 | 0.00 | 0.03 | 0.01 | 76 | 1013.4 |
| 20260904164021 | 56 | 248 | 0.9 | 2.6 | 0.00 | 0.03 | 0.01 | 76 | 1013.3 |
| 20260904163021 | 56 | 0.0 | 1.7 | 0.00 | 0.03 | 0.01 | 76 | 1013.1 | |
| 20260904162021 | 56 | 0.0 | 1.7 | 0.00 | 0.03 | 0.01 | 76 | 1013.3 | |
| 20260904161021 | 56 | 0.0 | 0.9 | 0.00 | 0.03 | 0.01 | 76 | 1013.2 | |
| 20260904160021 | 55 | 180 | 0.9 | 1.7 | 0.00 | 0.03 | 0.01 | 76 | 1013.0 |
| 20260904155021 | 55 | 0.0 | 1.7 | 0.00 | 0.03 | 0.01 | 76 | 1012.9 | |
| 20260904154020 | 55 | 0.0 | 0.9 | 0.00 | 0.03 | 0.01 | 76 | 1012.8 | |
| 20260904153021 | 54 | 0.0 | 1.7 | 0.00 | 0.03 | 0.01 | 75 | 1012.9 | |
| 20260904152021 | 54 | 0.0 | 0.0 | 0.00 | 0.03 | 0.01 | 75 | 1012.8 | |
| 20260904151020 | 53 | 0.0 | 0.0 | 0.00 | 0.03 | 0.01 | 74 | 1012.6 | |
| 20260904150040 | 53 | 0.0 | 0.0 | 0.00 | 0.03 | 0.01 | 74 | 1012.5 | |
| 20260904145020 | 53 | 0.0 | 0.0 | 0.00 | 0.03 | 0.01 | 73 | 1012.5 | |
| 20260904144020 | 53 | 0.0 | 0.0 | 0.00 | 0.03 | 0.01 | 73 | 1012.4 | |
| 20260904143021 | 53 | 0.0 | 0.0 | 0.00 | 0.03 | 0.01 | 73 | 1012.4 | |
| 20260904142020 | 53 | 0.0 | 0.0 | 0.00 | 0.03 | 0.01 | 73 | 1012.3 | |
| 20260904141021 | 53 | 0.0 | 0.0 | 0.00 | 0.03 | 0.01 | 73 | 1012.3 | |
| 20260904140100 | 53 | 0.0 | 0.0 | 0.00 | 0.03 | 0.01 | 73 | 1012.3 | |
| 20260904135020 | 53 | 0.0 | 0.0 | 0.00 | 0.03 | 0.01 | 73 | 1012.0 | |
| 20260904134020 | 53 | 0.0 | 0.9 | 0.00 | 0.03 | 0.01 | 72 | 1011.8 | |
| 20260904133020 | 53 | 0.0 | 0.0 | 0.00 | 0.03 | 0.01 | 72 | 1011.9 | |
| 20260904132020 | 53 | 0.0 | 0.9 | 0.00 | 0.03 | 0.01 | 72 | 1011.9 | |
| 20260904131020 | 53 | 0.0 | 0.0 | 0.00 | 0.04 | 0.01 | 72 | 1011.7 | |
| 20260904130020 | 53 | 0.0 | 0.0 | 0.00 | 0.04 | 0.01 | 72 | 1011.5 | |
| 20260904125020 | 53 | 0.0 | 0.0 | 0.00 | 0.04 | 0.01 | 72 | 1011.5 | |
| 20260904124020 | 54 | 0.0 | 0.0 | 0.00 | 0.04 | 0.01 | 72 | 1011.6 | |
| 20260904123020 | 54 | 0.0 | 0.0 | 0.00 | 0.05 | 0.01 | 72 | 1011.6 | |
| 20260904122020 | 54 | 0.0 | 0.9 | 0.00 | 0.05 | 0.01 | 72 | 1011.5 | |
| 20260904121020 | 54 | 0.0 | 1.7 | 0.00 | 0.06 | 0.01 | 72 | 1011.1 | |
| 20260904120040 | 54 | 180 | 1.7 | 2.6 | 0.00 | 0.06 | 0.01 | 72 | 1011.0 |
| 20260904115020 | 54 | 180 | 0.9 | 1.7 | 0.00 | 0.06 | 0.01 | 71 | 1010.9 |
| 20260904114020 | 53 | 180 | 0.9 | 1.7 | 0.00 | 0.06 | 0.01 | 71 | 1010.9 |
| 20260904113020 | 53 | 180 | 1.7 | 2.6 | 0.00 | 0.06 | 0.01 | 70 | 1010.9 |
| 20260904112020 | 53 | 0.0 | 0.9 | 0.00 | 0.06 | 0.01 | 70 | 1010.9 | |
| 20260904111020 | 53 | 0.0 | 0.0 | 0.00 | 0.06 | 0.01 | 70 | 1010.8 | |
| 20260904110022 | 53 | 0.0 | 0.0 | 0.00 | 0.06 | 0.01 | 70 | 1010.8 | |
| 20260904105022 | 53 | 0.0 | 0.0 | 0.00 | 0.06 | 0.01 | 69 | 1010.8 | |
| 20260904104022 | 54 | 0.0 | 0.0 | 0.00 | 0.06 | 0.01 | 69 | 1010.8 | |
| 20260904103022 | 54 | 0.0 | 0.0 | 0.00 | 0.06 | 0.01 | 69 | 1010.7 | |
| 20260904102042 | 54 | 0.0 | 0.0 | 0.00 | 0.06 | 0.01 | 69 | 1010.6 | |
| 20260904101022 | 54 | 0.0 | 0.0 | 0.00 | 0.06 | 0.01 | 69 | 1010.5 | |
| 20260904100022 | 54 | 0.0 | 0.0 | 0.00 | 0.06 | 0.01 | 69 | 1010.5 | |
| 20260904095022 | 54 | 0.0 | 0.0 | 0.00 | 0.06 | 0.01 | 69 | 1010.6 | |
| 20260904094022 | 54 | 0.0 | 0.0 | 0.00 | 0.06 | 0.01 | 69 | 1010.5 | |
| 20260904093022 | 54 | 0.0 | 0.0 | 0.00 | 0.06 | 0.01 | 69 | 1010.3 | |
| 20260904092022 | 54 | 0.0 | 0.0 | 0.00 | 0.06 | 0.01 | 69 | 1010.4 | |
| 20260904091022 | 54 | 0.0 | 0.0 | 0.00 | 0.06 | 0.01 | 68 | 1010.3 | |
| 20260904090022 | 54 | 0.0 | 0.0 | 0.00 | 0.06 | 0.01 | 68 | 1010.3 | |
| 20260904085022 | 54 | 0.0 | 0.0 | 0.00 | 0.06 | 0.01 | 68 | 1010.3 | |
| 20260904084022 | 55 | 0.0 | 0.0 | 0.00 | 0.06 | 0.01 | 68 | 1010.2 | |
| 20260904083022 | 55 | 0.0 | 0.0 | 0.00 | 0.06 | 0.01 | 68 | 1010.2 | |
| 20260904082022 | 55 | 0.0 | 0.0 | 0.00 | 0.06 | 0.01 | 68 | 1010.2 | |
| 20260904081021 | 55 | 0.0 | 0.9 | 0.00 | 0.06 | 0.01 | 68 | 1010.3 | |
| 20260904080021 | 56 | 0.0 | 0.0 | 0.01 | 0.06 | 0.01 | 68 | 1010.3 | |
| 20260904075022 | 56 | 0.0 | 0.0 | 0.02 | 0.06 | 0.01 | 68 | 1010.4 | |
| 20260904074021 | 56 | 0.0 | 1.7 | 0.02 | 0.06 | 0.01 | 68 | 1010.6 | |
| 20260904073021 | 56 | 0.0 | 0.0 | 0.02 | 0.06 | 0.01 | 68 | 1010.6 | |
| 20260904072021 | 56 | 0.0 | 0.0 | 0.02 | 0.06 | 0.01 | 68 | 1010.6 | |
| 20260904071022 | 56 | 0.0 | 0.0 | 0.02 | 0.06 | 0.01 | 68 | 1010.6 | |
| 20260904070021 | 56 | 0.0 | 0.0 | 0.01 | 0.05 | 0.05 | 68 | 1010.5 | |
| 20260904065021 | 56 | 0.0 | 0.0 | 0.00 | 0.04 | 0.04 | 68 | 1010.6 | |
| 20260904064021 | 57 | 0.0 | 0.0 | 0.00 | 0.04 | 0.04 | 68 | 1010.6 | |
| 20260904063021 | 57 | 0.0 | 0.0 | 0.00 | 0.04 | 0.04 | 68 | 1010.7 | |
| 20260904062021 | 57 | 0.0 | 0.0 | 0.00 | 0.04 | 0.04 | 68 | 1010.6 | |
| 20260904061021 | 57 | 0.0 | 0.0 | 0.00 | 0.04 | 0.04 | 68 | 1010.5 | |
| 20260904060021 | 57 | 0.0 | 0.0 | 0.00 | 0.04 | 0.04 | 68 | 1010.5 | |
| 20260904055021 | 57 | 0.0 | 0.0 | 0.00 | 0.04 | 0.04 | 67 | 1010.3 | |
| 20260904054021 | 57 | 0.0 | 0.0 | 0.00 | 0.04 | 0.04 | 67 | 1010.3 | |
| 20260904053021 | 57 | 0.0 | 0.0 | 0.00 | 0.04 | 0.04 | 67 | 1010.2 | |
| 20260904052101 | 57 | 0.0 | 0.0 | 0.00 | 0.04 | 0.04 | 67 | 1010.1 | |
| 20260904051020 | 57 | 0.0 | 0.0 | 0.00 | 0.04 | 0.04 | 67 | 1010.2 | |
| 20260904050020 | 57 | 0.0 | 0.0 | 0.00 | 0.04 | 0.04 | 66 | 1010.3 | |
| 20260904045021 | 57 | 0.0 | 0.0 | 0.00 | 0.04 | 0.04 | 66 | 1010.4 | |
| 20260904044020 | 57 | 0.0 | 0.0 | 0.00 | 0.04 | 0.04 | 66 | 1010.5 | |
| 20260904043020 | 57 | 0.0 | 0.0 | 0.00 | 0.04 | 0.04 | 66 | 1010.3 | |
| 20260904042020 | 58 | 0.0 | 0.0 | 0.00 | 0.04 | 0.04 | 66 | 1010.3 | |
| 20260904041021 | 58 | 0.0 | 0.0 | 0.00 | 0.04 | 0.04 | 66 | 1010.4 | |
| 20260904040021 | 58 | 0.0 | 0.0 | 0.00 | 0.04 | 0.04 | 65 | 1010.2 | |
| 20260904035041 | 58 | 0.0 | 0.0 | 0.00 | 0.04 | 0.04 | 65 | 1010.2 | |
| 20260904034020 | 58 | 0.0 | 0.0 | 0.00 | 0.04 | 0.04 | 65 | 1010.1 | |
| 20260904033020 | 58 | 0.0 | 0.0 | 0.00 | 0.04 | 0.04 | 65 | 1010.0 | |
| 20260904032021 | 59 | 0.0 | 0.0 | 0.00 | 0.04 | 0.04 | 65 | 1009.9 | |
| 20260904031020 | 59 | 0.0 | 0.0 | 0.00 | 0.04 | 0.04 | 64 | 1009.8 | |
| 20260904030020 | 59 | 0.0 | 1.7 | 0.00 | 0.04 | 0.04 | 64 | 1009.7 | |
| 20260904025041 | 59 | 0.0 | 1.7 | 0.00 | 0.04 | 0.04 | 64 | 1009.7 | |
| 20260904024040 | 60 | 180 | 0.9 | 2.6 | 0.00 | 0.04 | 0.04 | 64 | 1009.6 |
| 20260904023020 | 60 | 0.0 | 1.7 | 0.00 | 0.04 | 0.04 | 63 | 1009.6 | |
| 20260904022020 | 61 | 180 | 0.9 | 1.7 | 0.00 | 0.04 | 0.04 | 63 | 1009.6 |
| 20260904021040 | 61 | 180 | 1.7 | 3.5 | 0.00 | 0.04 | 0.04 | 61 | 1009.8 |
| 20260904020020 | 61 | 158 | 0.9 | 1.7 | 0.00 | 0.04 | 0.04 | 60 | 1009.5 |
| 20260904015020 | 62 | 113 | 0.9 | 1.7 | 0.00 | 0.04 | 0.04 | 59 | 1009.5 |
| 20260904014040 | 62 | 0.0 | 1.7 | 0.00 | 0.04 | 0.04 | 60 | 1009.7 | |
| 20260904013026 | 63 | 23 | 0.9 | 2.6 | 0.00 | 0.04 | 0.04 | 59 | 1009.8 |
| 20260904012020 | 64 | 0 | 0.9 | 1.7 | 0.00 | 0.04 | 0.04 | 56 | 1009.6 |
| 20260904011020 | 64 | 0.0 | 0.9 | 0.00 | 0.05 | 0.04 | 54 | 1009.4 | |
| 20260904010040 | 64 | 0 | 0.9 | 1.7 | 0.00 | 0.05 | 0.04 | 52 | 1009.4 |
| 20260904005020 | 64 | 23 | 1.7 | 4.3 | 0.00 | 0.05 | 0.04 | 52 | 1009.4 |
| 20260904004020 | 64 | 0 | 0.9 | 4.3 | 0.00 | 0.05 | 0.04 | 51 | 1009.2 |
| 20260904003020 | 64 | 0 | 0.9 | 3.5 | 0.00 | 0.06 | 0.04 | 51 | 1009.1 |
| 20260904002020 | 64 | 0 | 0.9 | 4.3 | 0.00 | 0.09 | 0.04 | 51 | 1009.2 |
| 20260904001020 | 64 | 90 | 0.9 | 3.5 | 0.00 | 0.09 | 0.04 | 52 | 1009.2 |
| 20260904000020 | 64 | 0 | 1.7 | 3.5 | 0.00 | 0.09 | 0.04 | 52 | 1009.2 |
| 20260903235020 | 64 | 0 | 0.9 | 2.6 | 0.00 | 0.09 | 0.04 | 51 | 1009.4 |
| 20260903234022 | 65 | 293 | 0.9 | 1.7 | 0.00 | 0.09 | 0.04 | 50 | 1009.4 |
| 20260903233040 | 65 | 23 | 0.9 | 3.5 | 0.00 | 0.09 | 0.04 | 47 | 1009.3 |
| 20260903232022 | 65 | 315 | 0.9 | 4.3 | 0.00 | 0.10 | 0.04 | 50 | 1009.3 |
| 20260903231022 | 65 | 293 | 0.9 | 2.6 | 0.00 | 0.10 | 0.04 | 47 | 1009.3 |
| 20260903230059 | 65 | 293 | 2.6 | 3.5 | 0.00 | 0.12 | 0.04 | 46 | 1009.4 |
| 20260903225022 | 65 | 315 | 0.9 | 2.6 | 0.00 | 0.13 | 0.04 | 49 | 1009.6 |
| 20260903224045 | 64 | 0.0 | 0.0 | 0.00 | 0.14 | 0.04 | 51 | 1009.6 | |
| 20260903223022 | 64 | 293 | 1.7 | 2.6 | 0.00 | 0.15 | 0.04 | 51 | 1009.6 |
| 20260903222022 | 64 | 0.0 | 0.9 | 0.00 | 0.16 | 0.04 | 52 | 1009.6 | |
| 20260903221022 | 64 | 203 | 0.9 | 3.5 | 0.00 | 0.17 | 0.04 | 52 | 1009.5 |
| 20260903220022 | 64 | 0.0 | 1.7 | 0.00 | 0.18 | 0.04 | 51 | 1009.4 | |
| 20260903215021 | 63 | 225 | 0.9 | 1.7 | 0.00 | 0.19 | 0.04 | 52 | 1009.6 |
| 20260903214022 | 63 | 0.0 | 0.9 | 0.00 | 0.20 | 0.04 | 54 | 1009.6 | |
| 20260903213020 | 64 | 225 | 0.9 | 3.5 | 0.00 | 0.21 | 0.04 | 53 | 1009.5 |
| 20260903212020 | 64 | 225 | 0.9 | 4.3 | 0.00 | 0.22 | 0.04 | 55 | 1009.4 |
| 20260903211021 | 64 | 180 | 1.7 | 3.5 | 0.00 | 0.23 | 0.04 | 53 | 1009.5 |
| 20260903210020 | 65 | 225 | 1.7 | 7.0 | 0.00 | 0.24 | 0.04 | 51 | 1009.3 |
| 20260903205022 | 65 | 180 | 0.9 | 3.5 | 0.00 | 0.24 | 0.04 | 51 | 1009.3 |
| 20260903204042 | 63 | 180 | 1.7 | 3.5 | 0.00 | 0.24 | 0.04 | 52 | 1009.2 |
| 20260903203020 | 63 | 203 | 1.7 | 4.3 | 0.00 | 0.24 | 0.04 | 53 | 1009.2 |
| 20260903202020 | 62 | 203 | 0.9 | 2.6 | 0.00 | 0.24 | 0.04 | 55 | 1009.2 |
| 20260903201020 | 62 | 203 | 0.9 | 4.3 | 0.01 | 0.24 | 0.04 | 55 | 1009.1 |
| 20260903200041 | 62 | 225 | 0.9 | 2.6 | 0.01 | 0.24 | 0.04 | 55 | 1009.4 |
| 20260903195020 | 62 | 225 | 1.7 | 6.1 | 0.01 | 0.24 | 0.04 | 54 | 1009.3 |
| 20260903194020 | 63 | 203 | 0.9 | 2.6 | 0.01 | 0.25 | 0.04 | 54 | 1009.2 |
| 20260903193020 | 63 | 225 | 0.9 | 2.6 | 0.01 | 0.26 | 0.04 | 54 | 1009.1 |
| 20260903192040 | 62 | 203 | 1.7 | 4.3 | 0.01 | 0.26 | 0.04 | 55 | 1009.3 |
| 20260903191041 | 61 | 180 | 1.7 | 4.3 | 0.00 | 0.25 | 0.03 | 56 | 1009.3 |
| 20260903190020 | 61 | 180 | 1.7 | 7.0 | 0.00 | 0.25 | 0.03 | 55 | 1009.2 |
| 20260903185020 | 61 | 180 | 1.7 | 4.3 | 0.00 | 0.25 | 0.03 | 57 | 1009.1 |
| 20260903184020 | 60 | 180 | 0.9 | 2.6 | 0.00 | 0.25 | 0.03 | 59 | 1009.1 |
| 20260903183020 | 59 | 203 | 1.7 | 5.2 | 0.00 | 0.25 | 0.03 | 58 | 1009.0 |
| 20260903182020 | 59 | 180 | 2.6 | 4.3 | 0.00 | 0.25 | 0.03 | 58 | 1009.1 |
| 20260903181021 | 59 | 180 | 1.7 | 5.2 | 0.00 | 0.25 | 0.03 | 59 | 1009.0 |
| 20260903180020 | 59 | 180 | 2.6 | 5.2 | 0.00 | 0.25 | 0.03 | 59 | 1009.0 |